{"data":{"norad_id":69452,"intl_designator":"2026-127K","name":"STARLINK-37577","alt_names":[],"object_type":"PAYLOAD","status":"ACTIVE","operator":null,"country":"US","launch_date":"2026-06-08","launch_site_code":"AFETR","launch_vehicle":null,"mission":null,"orbit_class":"UNKNOWN","rcs_meters":null,"size_class":null,"mass_kg":null,"dimensions":null,"purposes":["comms"],"wikipedia_slug":null,"has_3d_model":false,"image_url":null,"decayed_at":null,"tle_current":{"epoch":"2026-09-20T03:31:46.098048Z","epoch_age_seconds":55986,"freshness":"FRESH","line1":"1 69452U 26127K   26263.14706132  .00012308  00000+0  37480-3 0  9995","line2":"2 69452  53.1582 167.6785 0001214  69.7600 290.3533 15.34399532 16138","mean_motion":15.34399532,"eccentricity":0.0001214,"inclination_deg":53.1582,"raan_deg":167.6785,"arg_perigee_deg":69.76,"mean_anomaly_deg":290.3533,"bstar":0.0003748,"rev_number":1613,"period_min":93.847786705399,"perigee_km":461.87415302806,"apogee_km":463.53510937611,"semimajor_km":6840.8416312021,"source":"CELESTRAK","updated_at":"2026-09-20T09:00:44.200472Z"}}}